Weather History for Camden, AR

Change the Weather History Date:

Friday, September 20, 2013

  Actual Average Record
Temperature  
Mean Temperature 74 °F -  
Max Temperature 80 °F 84 °F 100 °F (1941)
Min Temperature 68 °F 61 °F 43 °F (1938)
Cooling Degree Days 9    
Growing Degree Days 24 (Base 50)    
Moisture  
Dew Point 70 °F    
Average Humidity 89    
Maximum Humidity 94    
Minimum Humidity 65    
Precipitation  
Precipitation 3.13 in - - ()
Sea Level Pressure  
Sea Level Pressure 29.88 in    
Wind  
Wind Speed 4 mph (NE)    
Max Wind Speed 12 mph    
Max Gust Speed 16 mph    
Visibility 5 miles    
Events Rain    
Averages and records for this station are not official NWS values.
T = Trace of Precipitation, MM = Missing Value Source: NWS Daily Summary

Daily Weather History Graph

Daily Weather History Graph

Search for Another Location

Airport:

Trip Planner

Search our weather history database for the weather conditions in past years. The results will help you decide how hot, cold, wet, or windy it might be!

Date:

Astronomy

Sep. 20, 2013 Rise Set
Actual Time 6:57 AM CDT 7:10 PM CDT
Civil Twilight 6:33 AM CDT 7:35 PM CDT
Nautical Twilight 6:04 AM CDT 8:04 PM CDT
Astronomical Twilight 5:34 AM CDT 8:33 PM CDT
Moon 7:51 PM CDT (9/20) 8:07 AM CDT (9/20)
Length of Visible Light 13h 01m
Length of Day
12h 12m
Full, 98% of the Moon is Illuminated
Sep 20
Full
Sep 26
Last Quarter
Oct 4
New
Oct 11
First Quarter
Oct 18
Full

Hourly Weather History & Observations

Time (CDT) Temp. Heat Index Dew Point Humidity Pressure Visibility Wind Dir Wind Speed Gust Speed Precip Events Conditions
12:15 AM 80.6 °F 83.2 °F 68.0 °F 65% 29.94 in 10.0 mi South 9.2 mph - N/A   Clear
12:35 AM 80.6 °F 83.2 °F 68.0 °F 65% 29.94 in 10.0 mi South 5.8 mph - N/A   Clear
12:55 AM 80.6 °F 83.2 °F 68.0 °F 65% 29.95 in 10.0 mi SSW 10.4 mph - N/A   Clear
1:15 AM 78.8 °F - 69.8 °F 74% 29.94 in 10.0 mi South 6.9 mph - N/A   Clear
1:35 AM 77.0 °F - 69.8 °F 78% 29.94 in 10.0 mi Calm Calm - N/A Rain Light Rain
1:55 AM 77.0 °F - 69.8 °F 78% 29.95 in 10.0 mi Calm Calm - N/A   Clear
2:15 AM 77.0 °F - 71.6 °F 83% 29.94 in 10.0 mi Calm Calm - N/A Rain Light Rain
2:35 AM 77.0 °F - 71.6 °F 83% 29.94 in 10.0 mi Calm Calm - N/A Rain Light Rain
2:55 AM 77.0 °F - 71.6 °F 83% 29.94 in 10.0 mi Calm Calm - N/A   Partly Cloudy
3:15 AM 75.2 °F - 71.6 °F 89% 29.93 in 10.0 mi Calm Calm - N/A   Partly Cloudy
3:35 AM 75.2 °F - 71.6 °F 89% 29.93 in 10.0 mi Calm Calm - N/A   Clear
3:55 AM 75.2 °F - 71.6 °F 89% 29.93 in 10.0 mi Calm Calm - N/A   Clear
4:15 AM 75.2 °F - 71.6 °F 89% 29.93 in 7.0 mi Calm Calm - N/A Rain Light Rain
4:35 AM 75.2 °F - 71.6 °F 89% 29.93 in 5.0 mi Calm Calm - N/A Rain Rain
4:55 AM 75.2 °F - 71.6 °F 89% 29.92 in 5.0 mi East 3.5 mph - N/A Rain Light Rain
5:15 AM 73.4 °F - 71.6 °F 94% 29.91 in 6.0 mi East 3.5 mph - N/A   Overcast
5:35 AM 73.4 °F - 71.6 °F 94% 29.90 in 8.0 mi East 3.5 mph - N/A   Mostly Cloudy
5:55 AM 73.4 °F - 71.6 °F 94% 29.89 in 9.0 mi East 3.5 mph - N/A   Overcast
6:15 AM 73.4 °F - 71.6 °F 94% 29.90 in 4.0 mi ESE 4.6 mph - 0.01 in Rain Rain
6:35 AM 73.4 °F - 71.6 °F 94% 29.91 in 2.0 mi Calm Calm - 0.09 in Rain Heavy Rain
6:55 AM 73.4 °F - 71.6 °F 94% 29.90 in 2.5 mi Calm Calm - 0.28 in Rain Heavy Rain
7:15 AM 73.4 °F - 71.6 °F 94% 29.90 in 3.0 mi Calm Calm - 0.02 in Rain Rain
7:35 AM 73.4 °F - 71.6 °F 94% 29.91 in 2.5 mi SE 3.5 mph - 0.07 in Rain Rain
7:55 AM 73.4 °F - 71.6 °F 94% 29.91 in 1.8 mi SSE 4.6 mph - 0.14 in Rain Heavy Rain
8:15 AM 73.4 °F - 71.6 °F 94% 29.91 in 2.5 mi SE 4.6 mph - 0.02 in Rain Light Rain
8:35 AM 73.4 °F - 71.6 °F 94% 29.91 in 2.0 mi SE 3.5 mph - 0.04 in Rain Rain
8:55 AM 73.4 °F - 71.6 °F 94% 29.90 in 0.5 mi Calm Calm - 0.27 in Rain Rain
9:15 AM 73.4 °F - 71.6 °F 94% 29.89 in 2.5 mi Calm Calm - 0.02 in Rain Light Rain
9:35 AM 73.4 °F - 71.6 °F 94% 29.90 in 1.2 mi ESE 4.6 mph - 0.14 in Rain Rain
9:55 AM 73.4 °F - 71.6 °F 94% 29.89 in 1.5 mi Calm Calm - 0.26 in Rain Rain
10:15 AM 73.4 °F - 71.6 °F 94% 29.89 in 1.5 mi SSE 5.8 mph - 0.08 in Rain Heavy Rain
10:35 AM 75.2 °F - 71.6 °F 89% 29.89 in 3.0 mi SE 5.8 mph - 0.13 in Rain Rain
10:55 AM 75.2 °F - 73.4 °F 94% 29.89 in 1.8 mi Calm Calm - 0.20 in Rain Heavy Rain
11:15 AM 75.2 °F - 73.4 °F 94% 29.89 in 1.5 mi Calm Calm - 0.05 in Rain Heavy Rain
11:35 AM 73.4 °F - 71.6 °F 94% 29.89 in 1.2 mi SW 11.5 mph 16.1 mph 0.35 in Rain Heavy Rain
11:55 AM 71.6 °F - 69.8 °F 94% 29.88 in 0.8 mi South 4.6 mph - 0.55 in Rain Heavy Rain
12:15 PM 71.6 °F - 69.8 °F 94% 29.88 in 4.0 mi WSW 8.1 mph - 0.02 in Rain Rain
12:35 PM 71.6 °F - 68.0 °F 88% 29.86 in 1.5 mi NNW 4.6 mph - 0.09 in Rain Heavy Rain
12:55 PM 71.6 °F - 69.8 °F 94% 29.87 in 1.0 mi ESE 3.5 mph - 0.25 in Rain Heavy Rain
1:15 PM 71.6 °F - 69.8 °F 94% 29.86 in 1.5 mi Calm Calm - 0.13 in Rain Heavy Rain
1:35 PM 71.6 °F - 69.8 °F 94% 29.86 in 1.0 mi WNW 4.6 mph - 0.31 in Rain Heavy Rain
1:55 PM 71.6 °F - 68.0 °F 88% 29.85 in 0.8 mi Calm Calm - 0.54 in Rain Heavy Rain
2:15 PM 71.6 °F - 68.0 °F 88% 29.84 in 2.0 mi NNW 4.6 mph - 0.05 in Rain Heavy Rain
2:35 PM 71.6 °F - 68.0 °F 88% 29.83 in 2.0 mi Calm Calm - 0.10 in Rain Heavy Rain
2:55 PM 71.6 °F - 69.8 °F 94% 29.83 in 3.0 mi Calm Calm - 0.14 in Rain Heavy Rain
3:15 PM 71.6 °F - 69.8 °F 94% 29.82 in 2.5 mi North 4.6 mph - 0.03 in Rain Heavy Rain
3:35 PM 73.4 °F - 71.6 °F 94% 29.82 in 3.0 mi ESE 3.5 mph - 0.08 in Rain Rain
3:55 PM 73.4 °F - 69.8 °F 88% 29.82 in 2.0 mi Calm Calm - 0.12 in Rain Heavy Rain
4:15 PM 73.4 °F - 69.8 °F 88% 29.84 in 2.5 mi Calm Calm - 0.03 in Rain Heavy Rain
4:35 PM 73.4 °F - 69.8 °F 88% 29.81 in 3.0 mi NE 4.6 mph - 0.07 in Rain Heavy Rain
4:55 PM 71.6 °F - 69.8 °F 94% 29.81 in 5.0 mi Calm Calm - 0.09 in Rain Rain
5:15 PM 71.6 °F - 68.0 °F 88% 29.82 in 3.0 mi Calm Calm - 0.02 in Rain Heavy Rain
5:35 PM 71.6 °F - 68.0 °F 88% 29.82 in 4.0 mi NE 4.6 mph - 0.03 in Rain Rain
5:55 PM 71.6 °F - 68.0 °F 88% 29.82 in 4.0 mi NE 4.6 mph - 0.07 in Rain Heavy Rain
6:15 PM 71.6 °F - 68.0 °F 88% 29.81 in 3.0 mi NNE 4.6 mph - 0.02 in Rain Heavy Rain
6:35 PM 71.6 °F - 68.0 °F 88% 29.80 in 3.0 mi NE 4.6 mph - 0.06 in Rain Heavy Rain
6:55 PM 71.6 °F - 68.0 °F 88% 29.82 in 3.0 mi North 4.6 mph - 0.09 in Rain Heavy Rain
7:15 PM 71.6 °F - 68.0 °F 88% 29.83 in 4.0 mi Calm Calm - 0.01 in Rain Rain
7:35 PM 71.6 °F - 68.0 °F 88% 29.83 in 5.0 mi North 3.5 mph - 0.02 in Rain Rain
7:55 PM 69.8 °F - 68.0 °F 94% 29.84 in 5.0 mi North 6.9 mph - 0.04 in Rain Heavy Rain
8:15 PM 69.8 °F - 68.0 °F 94% 29.85 in 6.0 mi North 5.8 mph - N/A Rain Rain
8:35 PM 69.8 °F - 68.0 °F 94% 29.85 in 5.0 mi North 4.6 mph - 0.02 in Rain Rain
8:55 PM 69.8 °F - 68.0 °F 94% 29.86 in 4.0 mi North 3.5 mph - 0.03 in Rain Heavy Rain
9:15 PM 69.8 °F - 68.0 °F 94% 29.85 in 5.0 mi NNE 4.6 mph - 0.01 in Rain Rain
9:35 PM 69.8 °F - 68.0 °F 94% 29.85 in 5.0 mi North 5.8 mph - 0.03 in Rain Rain
9:55 PM 69.8 °F - 66.2 °F 88% 29.86 in 4.0 mi North 4.6 mph - 0.04 in Rain Rain
10:15 PM 69.8 °F - 66.2 °F 88% 29.85 in 5.0 mi North 4.6 mph - 0.01 in Rain Rain
10:35 PM 69.8 °F - 66.2 °F 88% 29.85 in 9.0 mi North 5.8 mph - 0.01 in Rain Light Rain
10:55 PM 69.8 °F - 66.2 °F 88% 29.85 in 10.0 mi North 5.8 mph - 0.02 in Rain Light Rain
11:15 PM 69.8 °F - 66.2 °F 88% 29.84 in 9.0 mi North 5.8 mph - N/A   Overcast
11:35 PM 68.0 °F - 66.2 °F 94% 29.84 in 2.0 mi North 6.9 mph - N/A Rain Light Rain
11:55 PM 68.0 °F - 66.2 °F 94% 29.84 in 10.0 mi NNE 5.8 mph - N/A   Overcast